Theta_e
354 353 358 354 360 355 356 359 357 356 357 356 355 355 350 354 349 349 347 358 357 356 356 357 359 360 363 366 367 369 369 365 364 363 362 361 361 360 360 359 359 358 357
365 362 356 362 354 356 360 361 363 359 356 355 355 355 356 357 360 361 352 354 360 361 362 362 361 361 361 363 367 370 369 368 365 364 363 363 361 361 359 360 360 358 357
359 350 363 351 358 360 365 366 365 362 353 351 355 356 356 360 358 358 358 355 357 363 365 365 364 363 362 363 368 369 369 369 367 365 364 361 359 358 358 359 360 358 357
361 360 353 361 367 369 361 356 354 357 356 353 356 356 356 356 359 361 358 357 356 356 363 366 365 363 362 362 368 369 370 369 367 366 361 354 352 352 353 357 360 358 356
355 354 355 365 371 364 353 360 360 360 355 353 352 355 355 356 355 353 358 360 356 358 360 364 366 365 364 363 366 369 370 369 367 363 354 351 349 351 353 358 360 357 356
350 353 360 368 366 360 358 366 365 363 364 354 350 351 356 355 358 355 353 354 354 354 358 366 363 361 367 369 369 369 371 369 366 359 353 350 349 349 353 359 358 357 355
365 359 362 365 354 351 367 366 366 364 360 361 362 353 352 353 354 354 353 353 355 356 359 364 364 364 363 368 367 367 368 367 364 358 354 351 348 351 356 358 356 356 354
366 360 369 365 363 362 364 365 368 364 362 362 356 350 342 345 346 348 356 352 354 355 352 353 367 369 366 366 364 366 365 365 361 358 355 351 350 355 358 357 355 354 353
363 355 368 367 362 350 356 365 368 365 360 360 360 350 333 329 334 338 337 346 357 350 339 340 350 367 365 366 360 363 362 361 359 358 355 352 353 357 358 356 355 354 351
358 363 366 368 363 338 352 364 366 366 363 357 360 352 332 336 325 329 332 334 342 340 344 351 360 365 362 362 362 360 360 359 356 355 355 354 355 359 357 356 355 353 351
367 359 367 368 368 365 366 368 369 368 364 357 351 356 353 343 337 328 323 335 341 338 342 340 350 359 360 359 356 358 358 356 353 352 353 353 356 358 356 355 354 352 350
361 362 361 369 368 361 357 365 369 369 366 366 365 363 358 347 332 324 328 335 331 333 341 338 343 347 358 357 356 359 356 353 351 349 349 350 354 358 358 356 355 353 350
357 365 370 368 367 369 367 370 370 369 369 366 366 362 361 360 357 352 345 340 335 339 333 338 344 339 353 359 359 357 355 351 348 346 346 347 348 353 358 358 357 354 353
355 364 367 369 367 369 369 369 367 366 366 367 366 366 363 358 359 357 352 347 336 332 336 332 346 348 359 361 360 357 351 349 346 343 343 343 345 346 350 353 358 357 355
359 365 365 368 367 357 370 368 365 364 359 365 364 365 365 358 359 359 357 353 349 339 336 344 344 364 360 359 360 363 361 347 346 343 341 341 342 344 346 348 349 352 353
354 360 364 362 363 360 367 368 364 365 364 364 362 362 366 364 359 358 354 353 356 349 343 349 349 360 363 356 360 362 363 349 347 343 341 339 340 341 342 345 346 346 352
371 366 368 361 365 360 366 366 364 363 361 361 364 361 362 365 361 358 358 356 353 355 347 352 353 356 363 359 362 366 362 359 348 343 341 339 338 339 340 340 343 344 346
371 366 367 367 361 365 361 362 363 360 358 361 361 363 361 354 363 365 361 359 357 360 349 347 356 353 355 356 362 363 360 354 357 344 341 339 337 336 336 337 337 339 339
364 365 367 366 366 363 361 363 362 361 363 358 358 361 360 361 362 361 360 358 357 356 357 352 350 353 355 356 346 358 360 355 351 343 338 338 337 336 334 333 332 331 333
363 364 365 363 364 363 366 357 358 361 360 359 358 357 361 359 360 360 358 358 355 355 356 352 347 352 351 356 353 352 348 355 352 358 352 345 341 339 335 332 331 330 326
363 363 362 361 361 364 351 349 358 357 361 362 361 360 360 354 350 350 357 359 358 357 352 348 347 348 349 351 350 355 352 352 355 357 356 357 355 353 352 336 338 335 329
364 362 363 356 356 347 333 335 345 363 358 355 355 360 363 353 355 345 343 342 348 357 355 352 350 347 349 353 353 354 352 351 346 359 356 354 357 351 354 353 339 338 330
361 359 358 354 347 337 325 329 336 356 361 360 356 361 358 348 341 354 348 342 342 339 339 349 351 354 352 356 357 354 353 352 350 354 355 351 357 354 356 359 338 335 330
360 360 357 347 336 325 318 321 328 350 358 357 354 352 350 339 328 332 352 356 357 357 357 355 357 356 356 357 358 355 353 354 355 356 356 347 355 353 356 358 339 334 329
351 343 340 335 329 322 316 318 330 351 357 348 338 333 341 333 321 321 342 344 348 348 340 333 331 330 332 335 339 351 350 348 346 348 355 348 351 349 353 355 357 337 331
337 332 329 329 324 323 314 315 330 344 351 348 335 328 320 322 317 317 335 339 332 333 332 335 339 341 343 349 336 349 352 346 346 344 353 338 344 346 343 352 350 355 356
Wind_Speed
9 2 5 5 1 2 5 4 2 2 4 5 5 5 4 4 8 5 5 12 11 9 8 7 6 6 7 7 8 9 10 9 6 7 8 8 7 6 7 8 10 13 14
3 4 3 4 5 5 4 1 2 1 4 5 5 2 4 3 2 3 6 7 13 13 11 9 7 6 5 5 7 9 9 8 7 9 9 10 10 9 5 4 8 13 14
15 10 1 4 4 4 4 5 5 4 4 4 5 6 4 6 3 5 6 7 7 12 12 11 8 6 4 4 6 8 8 7 6 7 8 9 9 9 9 8 2 13 14
8 11 6 1 3 2 5 2 3 2 2 4 2 3 3 5 6 6 4 5 6 6 9 11 9 6 5 3 2 6 8 8 8 10 11 12 9 9 8 9 6 14 14
18 12 8 3 5 6 6 4 4 2 2 1 4 3 4 4 7 6 3 4 4 7 3 11 9 7 6 3 4 6 9 9 10 13 14 13 10 10 9 8 14 15 15
19 11 9 5 6 5 9 3 4 5 4 2 5 2 3 0 1 3 6 4 3 7 5 7 5 4 7 3 5 9 10 10 12 15 15 13 11 10 10 8 15 16 16
3 6 6 3 7 6 5 5 4 5 2 4 2 2 4 5 5 2 4 3 5 5 5 6 3 4 4 7 9 11 11 12 14 15 14 13 12 10 9 14 15 16 16
2 8 3 5 4 5 5 5 3 4 2 2 2 1 3 4 1 5 4 1 6 15 15 15 3 1 6 5 8 13 11 12 14 15 14 13 11 10 10 13 14 15 15
4 5 5 2 8 10 5 6 3 6 5 5 4 3 6 4 10 10 17 21 15 11 11 6 15 3 8 5 8 11 10 11 12 14 14 13 10 10 14 14 14 14 14
3 2 2 2 7 8 8 5 2 5 5 6 5 5 13 11 6 6 7 11 13 12 15 11 6 4 7 6 11 13 10 10 10 13 13 12 10 10 12 14 13 13 12
3 3 4 2 3 3 5 4 4 6 5 9 14 7 3 11 8 6 1 12 17 6 11 13 14 1 6 6 5 8 11 9 9 10 12 11 10 10 11 12 14 14 12
4 5 4 3 4 5 10 4 4 4 4 5 2 8 5 3 7 3 6 6 6 5 3 12 15 20 6 5 9 11 11 8 9 8 10 9 8 8 9 9 12 12 13
4 5 5 4 3 2 5 3 4 3 3 2 3 4 5 6 4 3 7 9 4 2 5 7 6 9 5 7 4 7 10 8 10 7 9 6 6 6 7 9 10 10 11
4 8 5 5 5 4 2 4 4 4 3 3 4 3 4 4 3 3 2 4 3 2 4 9 3 6 6 4 5 10 5 6 12 6 7 5 4 3 1 2 4 10 10
4 3 6 4 4 5 3 3 3 4 1 4 5 5 4 5 7 4 3 1 2 2 3 4 4 3 4 4 2 3 4 9 11 9 8 7 5 2 3 4 4 4 10
10 10 6 5 5 4 2 3 5 4 4 2 4 6 5 4 6 5 5 7 3 5 4 4 3 1 1 2 2 4 3 10 9 11 10 10 10 9 7 7 7 7 9
3 6 3 4 5 4 5 4 4 4 4 5 5 5 5 4 3 5 5 4 4 4 4 4 3 5 4 2 2 2 6 3 5 10 11 12 12 12 11 10 9 10 9
3 5 5 4 5 6 5 5 6 5 6 4 5 5 4 4 4 4 3 6 5 5 4 6 3 4 3 5 4 1 3 4 4 11 14 13 13 12 12 12 10 10 10
5 4 3 4 4 6 5 7 6 5 5 5 5 4 3 3 2 3 4 4 4 3 2 3 5 4 5 7 9 4 1 4 5 6 10 11 12 13 14 12 12 10 11
6 7 7 6 5 6 5 4 6 7 5 7 5 4 3 3 3 0 3 5 5 5 4 4 5 4 5 5 1 3 5 5 5 8 10 1 12 11 14 14 12 12 12
8 7 6 5 7 4 5 6 6 8 6 4 5 4 3 5 2 4 0 2 4 4 4 5 7 6 5 5 6 4 6 5 6 5 5 7 7 5 5 12 11 17 15
5 5 6 6 6 6 7 9 8 3 5 3 7 2 4 9 7 3 4 5 5 3 4 3 4 5 6 7 6 6 5 5 5 4 7 8 6 8 8 2 11 14 17
5 7 6 6 9 7 10 10 11 5 3 1 3 5 5 8 11 9 7 5 6 8 8 5 6 4 6 4 6 6 6 6 7 9 5 7 5 6 6 3 10 12 12
3 3 5 11 8 7 10 10 8 3 4 9 9 8 8 8 8 8 6 6 6 6 6 3 3 5 6 4 4 4 5 6 5 5 6 4 4 4 7 7 4 4 2
5 9 8 10 9 8 12 10 6 5 6 9 8 8 8 7 9 13 7 7 6 6 7 11 8 10 11 13 9 2 4 4 5 5 4 4 4 5 3 5 3 1 8
9 8 11 9 11 9 13 15 11 4 5 7 7 7 10 7 8 10 6 8 7 7 9 11 10 9 9 8 7 2 4 4 3 3 2 6 6 5 5 2 9 7 6
Wind_Direction
193 158 197 52 240 164 73 42 359 140 84 75 33 82 75 31 128 138 154 177 182 200 223 238 256 280 303 324 331 322 326 345 354 345 352 347 330 301 263 241 213 201 196
25 337 315 160 68 44 71 74 286 347 150 132 110 72 95 105 37 155 157 184 192 202 209 227 244 261 297 323 333 330 346 2 8 351 2 6 357 1 349 271 205 189 181
131 239 242 71 121 148 220 197 247 223 132 134 162 154 176 152 147 274 158 176 190 213 216 205 224 252 279 326 338 344 352 352 1 8 7 1 357 16 9 357 215 170 168
3 14 349 84 32 321 207 172 311 33 94 115 209 144 184 162 179 223 254 158 168 181 215 222 206 219 245 249 22 7 2 4 20 27 18 10 18 20 14 360 127 148 150
66 345 307 65 356 320 42 350 343 23 276 156 165 175 252 212 191 172 212 221 125 176 187 191 200 200 223 210 85 35 23 26 32 37 28 29 34 38 29 18 121 131 134
93 239 254 18 20 343 154 1 355 336 340 323 320 108 238 288 212 174 181 187 246 115 114 103 177 210 205 158 90 54 37 39 39 40 36 34 38 40 34 89 120 125 128
40 20 342 6 46 298 27 12 326 305 287 13 24 247 190 219 236 220 86 167 209 127 119 114 73 136 180 132 77 63 48 47 37 38 39 38 47 46 45 118 122 125 126
225 149 30 4 28 354 1 293 321 321 313 57 292 246 321 296 68 83 351 1 313 60 20 346 129 349 82 132 90 67 50 50 40 38 43 45 52 43 79 110 121 125 127
189 250 121 33 50 7 307 299 360 19 357 350 293 54 74 4 322 14 356 338 345 97 98 279 286 89 97 116 72 72 64 58 45 39 43 52 53 52 106 114 122 128 130
197 145 116 356 107 172 274 304 9 26 37 4 326 105 152 169 184 344 339 344 344 24 357 290 223 82 98 96 88 87 85 73 55 45 42 50 57 77 109 122 127 131 135
223 230 151 184 293 3 286 283 354 21 24 59 338 301 314 103 90 133 230 13 326 38 9 318 338 21 115 110 97 95 100 91 75 62 48 43 63 84 116 133 137 142 146
203 252 200 202 231 129 254 291 6 349 21 27 279 1 315 130 161 131 102 150 264 346 312 354 355 315 99 106 96 116 117 114 95 79 65 48 43 77 125 144 147 152 156
203 188 200 182 242 248 294 341 310 332 320 6 26 325 339 345 14 6 120 193 163 355 284 241 189 277 6 61 47 129 130 134 113 95 88 63 48 48 58 160 164 167 174
246 159 177 180 244 218 237 295 323 294 322 327 350 345 338 352 351 27 43 97 99 271 280 245 200 277 31 68 14 117 134 155 124 126 115 104 78 67 82 77 178 185 182
103 154 196 201 189 241 232 334 279 300 266 314 314 331 333 1 2 353 11 11 122 34 229 247 282 33 4 109 351 3 49 171 143 157 167 159 156 197 213 204 220 235 197
152 212 171 189 212 219 181 245 287 280 284 309 340 7 355 1 350 348 22 355 360 57 35 23 336 346 245 338 39 338 355 163 165 163 197 186 185 192 219 214 216 222 214
175 159 193 200 193 209 212 201 281 310 334 300 326 315 308 314 333 345 344 331 352 41 21 335 326 291 254 217 263 8 313 178 162 176 206 201 208 196 209 223 216 212 215
238 174 179 223 212 204 219 182 245 285 221 239 241 269 288 298 4 305 324 8 353 353 76 287 285 306 272 258 225 203 265 335 174 193 202 211 211 211 209 210 217 221 215
204 217 217 242 248 248 211 203 222 254 292 279 230 248 299 304 313 7 343 334 335 352 311 296 303 293 322 43 20 322 258 337 10 153 209 221 223 215 217 210 213 213 221
184 219 193 206 227 237 248 250 246 249 246 265 295 255 282 331 312 327 335 342 24 345 326 350 321 335 42 348 307 9 358 22 351 345 331 200 217 225 227 212 209 211 214
191 200 205 222 228 237 26 339 311 221 236 253 286 330 358 58 73 75 321 356 356 335 346 343 331 340 1 2 355 357 8 344 349 332 335 339 335 306 245 221 195 211 212
204 203 193 197 233 69 15 2 352 337 3 313 293 3 345 21 297 245 267 299 344 306 296 282 299 317 335 347 353 355 332 348 331 314 347 315 332 311 309 224 208 203 208
222 198 210 212 86 67 5 16 358 335 336 325 245 348 346 44 19 9 4 285 271 264 241 298 313 320 320 319 331 326 327 316 301 300 309 303 302 304 302 9 215 218 216
220 214 88 93 91 46 19 12 349 304 307 56 45 53 61 49 16 360 347 347 343 356 28 6 342 330 320 334 275 279 284 284 274 290 353 322 324 323 338 334 246 251 273
83 87 84 89 84 49 12 13 354 301 82 87 64 35 53 55 12 7 7 7 346 43 343 314 308 286 265 267 253 318 314 344 329 326 6 331 322 330 309 303 17 236 260
79 88 86 78 70 54 20 21 25 9 119 125 116 96 67 54 24 23 18 12 7 350 337 327 316 301 276 273 282 242 344 321 288 290 58 1 331 5 319 344 341 334 329